Wind_Speed
18 16 15 14 14 15 16 17 18 21 23 25 27 28 30 32 37 25 16 11 10 6 9 9 13 15 15 15 18 12 11 14 13 11 10 9 8 10 4 7 17 19 14 10 17
16 17 17 16 16 16 17 19 19 21 24 23 26 30 31 34 32 26 19 12 10 9 9 13 11 13 11 17 12 10 12 19 10 10 12 8 14 5 4 14 10 23 4 12 15
19 19 18 19 18 17 17 18 19 20 23 24 24 28 31 30 15 4 7 7 10 11 15 16 15 13 13 17 13 14 14 17 15 7 10 15 16 7 10 5 7 9 8 11 13
16 18 19 20 21 20 19 19 20 20 23 24 24 26 29 12 7 4 4 5 7 10 13 15 11 13 14 18 16 15 12 15 16 13 11 12 13 16 4 4 13 15 12 11 11
17 18 18 19 20 21 21 20 21 20 22 24 24 23 18 9 15 5 5 9 8 10 15 13 14 15 15 19 15 12 14 13 18 11 14 12 10 15 10 18 14 15 11 13 9
19 18 18 18 19 19 19 20 20 19 22 22 22 22 13 20 15 10 7 10 13 16 15 16 14 14 17 17 18 15 14 14 16 19 11 12 5 5 18 27 13 11 11 11 10
20 20 18 19 20 19 20 21 21 20 20 20 19 16 16 25 16 16 9 14 16 17 14 19 18 16 13 16 15 16 17 17 18 17 12 14 10 3 7 15 7 11 9 9 8
19 20 20 18 20 22 20 22 21 18 20 17 18 13 12 16 16 21 21 18 17 17 17 19 14 11 16 16 18 17 17 16 14 6 13 12 7 5 9 4 11 11 11 11 13
21 20 20 19 19 22 23 22 22 19 20 17 11 10 15 12 21 23 19 20 17 16 14 15 10 13 15 16 14 16 15 19 16 10 14 8 2 8 16 11 16 12 12 10 16
22 20 20 20 20 22 24 22 17 17 12 11 14 11 15 13 12 16 20 20 16 12 13 12 8 13 14 13 15 16 11 20 12 9 12 11 15 13 12 21 24 14 13 11 17
25 20 19 19 19 18 22 14 6 7 13 11 11 8 18 8 8 9 16 20 19 18 16 17 13 16 19 20 22 16 13 15 4 4 4 9 9 16 19 21 17 15 15 16 13
21 23 18 17 19 17 16 8 8 7 11 20 24 24 31 26 9 15 18 16 20 21 19 16 19 19 21 21 7 12 14 15 2 2 3 11 7 21 17 13 11 14 15 15 15
21 20 20 16 17 17 20 25 18 14 9 18 25 24 29 28 24 17 21 22 22 21 21 20 20 20 21 11 9 13 14 3 18 4 13 13 13 9 2 11 8 13 14 18 16
23 20 17 13 12 19 19 19 21 15 7 14 14 8 27 23 24 29 24 21 16 23 23 24 23 13 16 10 13 14 10 11 11 10 7 6 9 11 11 11 13 11 12 13 16
26 21 17 19 11 9 4 4 12 5 6 6 11 4 8 21 6 24 34 23 25 22 17 21 20 19 14 15 15 13 6 11 10 12 14 10 5 11 13 15 14 14 12 14 11
27 22 18 18 21 24 20 20 5 7 11 6 9 8 12 22 26 14 26 23 21 24 20 21 16 19 18 15 13 10 9 9 12 11 11 14 6 9 5 10 11 18 17 15 18
28 25 21 19 16 19 15 10 7 11 10 12 14 11 16 18 25 21 27 25 23 22 20 18 22 17 15 16 18 9 10 7 6 8 8 6 9 7 12 12 14 8 19 19 16
29 27 22 24 21 19 4 5 15 21 29 5 19 16 17 17 19 24 21 23 24 21 14 16 16 24 13 17 14 14 14 8 6 3 4 12 6 5 10 10 5 1 2 9 16
28 29 24 24 24 19 3 14 15 27 24 28 9 11 15 17 11 21 25 22 24 24 21 19 21 20 16 15 18 14 13 16 9 9 5 5 14 6 9 5 8 4 2 7 6
29 22 26 26 26 16 5 17 27 29 31 21 28 13 13 17 16 17 22 19 22 24 18 16 13 22 21 17 18 16 9 10 6 4 6 6 7 3 8 6 8 8 6 6 2
26 6 17 29 25 6 11 28 34 24 31 23 25 20 24 16 17 17 13 16 19 17 26 25 15 15 17 16 18 11 11 11 13 7 1 4 2 2 7 6 7 6 7 5 5
12 9 24 38 11 8 24 25 30 28 29 27 24 25 18 20 13 19 21 16 15 21 23 25 9 10 16 17 16 17 17 15 6 8 5 2 5 4 11 5 8 7 6 4 4
6 5 24 32 13 19 23 33 26 30 25 24 28 21 14 19 14 15 14 10 2 19 20 20 16 10 15 16 16 19 14 14 13 11 11 8 4 2 2 3 1 3 7 9 7
6 6 5 14 18 27 25 27 28 31 31 24 23 22 19 16 12 8 17 5 5 7 22 16 17 15 11 15 14 14 16 19 18 7 7 9 11 16 3 9 10 11 12 7 9
7 9 11 15 23 29 25 14 27 30 29 23 22 20 23 15 15 15 10 10 3 3 5 4 16 17 17 19 20 21 18 19 19 13 15 12 15 15 12 7 6 4 8 4 3
6 8 15 10 19 26 25 28 25 30 29 34 26 18 17 17 16 19 18 9 5 7 9 6 12 17 16 19 19 14 19 22 20 19 16 17 17 15 12 8 8 6 8 4 5
10 20 12 17 22 17 26 30 31 23 27 30 29 19 12 21 5 9 7 4 3 3 10 9 7 12 15 17 18 17 17 14 14 15 15 15 11 11 12 10 7 6 7 6 9
Wind_Direction
304 306 306 312 317 314 307 311 320 325 329 330 332 333 333 332 320 314 260 262 207 226 199 237 226 240 241 258 260 277 269 268 309 296 129 167 218 226 10 304 50 24 17 83 111
307 304 304 303 306 305 312 308 310 318 316 323 328 330 332 332 315 289 268 230 240 234 216 227 224 229 242 245 240 238 266 277 295 322 304 249 229 232 231 45 18 4 49 125 134
308 307 304 304 303 304 306 306 309 310 314 319 323 327 330 331 301 81 161 202 231 225 229 275 261 282 252 266 243 252 257 290 312 320 317 314 308 188 250 55 113 208 232 166 164
311 311 312 304 301 299 301 303 305 307 309 314 319 327 329 321 293 102 169 197 213 210 234 261 260 257 255 266 242 246 272 270 269 303 302 286 297 322 48 174 218 213 167 140 122
298 305 311 315 310 299 293 293 299 298 302 307 314 325 337 286 258 272 235 231 217 201 227 246 248 250 254 262 273 263 263 267 275 277 274 291 313 295 59 127 137 124 140 128 141
294 298 304 309 314 308 300 289 288 300 296 297 307 318 289 268 262 251 268 225 216 213 231 244 252 254 269 290 290 286 300 292 287 282 271 266 292 40 18 344 106 137 149 149 146
291 292 298 303 308 309 306 299 289 287 286 290 299 306 272 253 266 274 272 248 230 219 232 238 252 267 277 262 267 264 274 274 264 259 263 255 232 47 173 180 191 144 155 138 147
283 289 292 297 303 306 303 302 291 282 285 290 298 287 260 259 255 251 248 242 233 227 232 263 251 270 271 283 285 276 263 266 279 224 257 239 287 213 153 226 232 161 155 152 165
279 282 288 292 300 300 305 299 291 280 279 284 287 218 268 254 231 239 229 228 219 230 231 246 263 247 255 252 261 247 252 257 251 219 256 203 73 340 328 274 267 169 157 163 134
278 277 280 288 293 302 306 299 293 282 278 255 247 285 243 253 250 217 216 224 220 209 220 231 234 235 239 252 252 266 242 266 248 204 248 267 150 192 218 235 233 173 152 153 151
273 276 274 283 288 300 313 320 222 203 210 220 197 236 295 230 238 219 197 203 226 208 216 210 222 231 233 231 256 282 303 286 30 343 284 282 254 170 221 235 157 163 159 161 177
277 271 280 274 284 290 294 260 283 345 288 235 247 259 258 270 272 219 193 191 209 211 208 224 222 237 241 255 299 283 266 277 211 186 261 291 289 135 183 199 181 158 174 157 171
271 274 265 269 278 277 260 252 277 324 271 266 246 239 237 233 241 249 188 200 206 214 207 222 224 218 245 250 245 247 257 300 285 263 263 256 267 311 210 161 211 170 173 160 182
261 266 260 249 269 259 251 260 253 283 278 263 230 248 224 222 231 233 224 201 213 215 225 223 238 245 226 231 227 251 228 297 258 266 272 72 287 255 241 187 186 194 167 166 176
252 254 244 218 271 307 29 354 215 214 274 287 183 123 221 196 173 205 227 198 216 208 217 229 223 236 233 236 240 260 149 266 293 276 286 237 250 262 204 218 198 183 181 170 194
241 244 235 230 250 257 281 321 212 228 235 238 141 191 193 201 224 208 200 216 219 235 225 231 228 229 228 233 247 271 267 241 269 263 263 271 247 236 276 290 214 184 178 187 190
239 236 226 220 227 253 258 331 200 223 211 238 174 189 208 200 216 236 188 204 205 212 230 226 241 223 227 228 232 214 245 250 248 250 248 285 280 234 167 243 257 160 176 188 194
235 229 228 224 231 255 187 219 224 222 232 104 188 177 210 207 211 222 213 207 211 215 212 216 224 227 210 236 209 212 228 235 194 261 343 338 253 145 171 174 85 177 272 188 185
226 223 222 217 224 244 220 219 220 231 202 241 223 212 211 223 213 210 225 209 208 214 216 207 228 216 210 212 242 212 216 245 134 231 218 225 255 172 160 164 157 198 135 200 208
208 214 219 209 209 218 218 241 232 239 268 258 230 196 218 205 203 202 209 217 216 205 232 251 214 230 198 201 226 241 248 234 189 175 234 210 265 317 164 162 129 174 117 92 95
197 211 199 197 194 203 216 218 228 232 249 259 263 258 238 243 207 211 216 222 217 200 226 243 255 220 200 201 209 212 229 240 243 243 301 287 89 232 326 139 169 111 128 123 102
189 215 177 170 193 214 225 222 228 228 240 256 275 254 252 253 230 220 217 229 191 210 216 236 246 219 219 191 218 236 209 233 212 227 202 289 260 95 315 203 169 196 165 176 142
187 172 187 171 201 213 226 233 235 236 246 244 254 261 243 269 244 230 213 269 217 174 236 236 238 227 214 211 208 226 229 237 238 235 238 183 261 164 277 356 247 212 213 176 168
167 165 172 196 215 215 211 222 225 234 245 248 251 270 248 262 254 240 207 249 92 233 224 256 230 233 206 220 205 222 228 222 233 228 264 216 229 252 103 274 231 219 208 199 173
176 191 181 189 209 213 211 212 221 220 231 247 249 253 262 246 239 257 237 208 264 290 300 258 228 232 237 245 196 218 216 237 246 227 216 228 251 252 264 193 279 67 66 109 178
166 197 186 207 210 206 217 217 229 213 220 229 243 237 230 260 242 240 223 170 172 233 247 278 224 237 243 246 263 234 228 209 225 243 247 243 237 251 271 254 228 165 145 204 178
183 217 169 213 187 195 212 217 221 222 221 220 230 233 228 256 359 5 11 7 82 306 204 234 217 227 239 243 259 249 242 245 232 233 237 242 249 262 269 272 253 190 184 175 126
Height
824 823 822 821 819 817 816 815 812 810 807 804 800 796 792 787 778 776 771 764 765 765 765 766 766 763 762 757 748 746 763 758 743 742 743 733 730 719 726 733 745 761 761 759 760
821 821 819 818 817 816 815 813 810 808 806 802 799 796 791 785 776 767 763 760 762 764 765 762 760 758 757 751 745 752 759 747 731 726 728 721 722 719 732 749 753 751 772 773 770
820 818 817 816 814 813 812 811 809 807 805 801 797 795 790 785 775 755 758 757 761 762 762 760 756 753 756 746 741 744 753 734 728 721 720 723 720 715 722 752 753 763 764 772 769
818 817 815 814 812 811 809 808 807 805 804 801 797 793 789 785 777 757 758 758 759 760 763 759 756 758 757 752 734 746 735 732 727 719 723 726 719 723 726 742 740 752 765 766 769
816 814 814 812 810 808 806 805 805 803 802 800 797 794 789 779 765 759 758 758 758 759 760 757 756 754 756 744 734 737 735 729 722 720 720 717 727 726 744 735 742 755 762 764 766
814 813 811 809 807 806 804 802 801 799 800 797 796 795 791 781 759 757 758 757 756 758 756 755 750 745 746 743 740 730 728 728 723 721 716 722 729 733 756 758 747 756 759 757 761
811 811 809 808 805 803 801 800 797 795 796 794 794 793 786 763 755 753 756 755 754 753 752 750 748 746 743 745 730 731 740 730 725 720 718 715 732 752 750 762 762 759 757 754 756
808 809 808 805 804 801 797 797 794 792 792 791 791 790 775 753 750 749 750 751 750 750 750 747 746 744 746 737 736 738 737 746 720 715 715 717 742 752 745 755 757 750 753 752 755
805 805 805 803 802 800 796 792 790 789 788 788 788 784 763 743 743 743 743 747 747 748 748 748 745 748 746 751 750 737 749 734 724 714 717 722 744 753 741 747 757 742 746 748 751
801 801 802 801 800 798 793 788 784 786 785 785 783 782 753 740 731 735 739 744 743 745 748 749 749 754 748 751 760 739 737 728 724 720 716 720 751 747 741 736 743 733 742 746 750
797 797 797 799 798 796 794 786 783 781 781 762 755 751 737 732 731 733 733 741 741 742 753 747 756 754 742 731 729 722 728 728 717 713 718 722 719 733 735 721 725 727 735 742 746
792 792 793 796 796 794 794 789 769 773 765 754 748 744 741 738 735 728 730 738 741 744 741 748 750 733 725 718 724 728 731 726 712 710 718 717 719 722 719 711 712 719 726 733 739
788 789 791 793 793 791 789 782 774 773 764 742 731 725 726 735 730 726 722 728 734 739 735 743 727 718 722 721 732 729 730 732 735 718 714 718 723 717 708 706 707 710 715 725 731
784 786 789 791 794 782 781 776 777 776 766 727 711 704 712 721 722 718 714 722 726 734 731 727 715 714 717 726 723 733 713 719 721 727 739 724 755 727 714 709 710 709 712 720 725
780 782 784 786 780 777 770 770 772 776 769 693 686 697 698 711 703 707 709 714 725 721 725 723 716 718 725 721 715 723 714 721 720 727 726 725 745 722 712 712 708 707 711 718 722
774 777 780 783 783 774 774 772 771 774 749 700 693 704 706 707 708 692 706 706 709 717 709 711 697 705 709 709 708 708 716 721 722 727 746 721 731 733 717 712 698 697 704 710 716
768 771 774 778 776 776 778 779 773 751 702 696 694 697 704 705 709 701 707 711 716 729 724 713 709 699 701 715 708 715 728 750 755 752 747 715 723 709 710 703 696 691 697 702 704
761 766 769 773 775 775 778 780 752 711 704 672 673 687 703 695 703 705 698 709 704 707 720 729 731 702 698 708 715 721 724 744 769 789 763 739 730 708 690 687 687 689 690 692 697
756 760 764 767 772 775 776 763 737 703 685 694 684 691 700 691 692 700 699 698 696 698 715 719 716 694 695 700 704 715 725 709 755 760 769 752 710 689 685 690 691 693 692 693 695
749 755 755 761 767 773 773 752 719 708 691 686 695 684 694 689 693 695 695 686 692 691 693 700 714 690 691 694 697 704 700 726 726 774 752 721 714 709 699 696 693 696 696 694 694
744 746 741 753 763 764 749 723 711 703 696 695 690 686 683 680 682 689 691 689 686 689 696 691 698 696 685 697 705 708 714 713 708 715 740 743 729 716 704 691 697 694 694 696 697
732 730 732 742 752 740 721 710 716 704 698 697 691 680 679 676 675 682 686 685 671 690 693 686 692 704 695 684 686 690 702 703 722 729 726 737 732 702 699 688 690 693 692 693 695
718 726 727 730 726 719 714 708 715 712 697 694 695 678 675 679 682 678 679 675 674 685 693 684 698 708 714 696 688 696 692 694 696 703 719 748 729 685 685 686 685 689 687 689 693
709 713 719 718 706 700 701 701 710 710 702 692 690 683 682 685 669 682 678 680 678 681 687 685 682 690 707 700 691 698 691 691 695 719 716 714 711 694 690 693 687 684 683 685 689
689 684 680 688 691 682 697 692 698 703 700 696 694 690 690 685 683 678 673 680 679 679 679 679 687 682 682 677 680 685 690 691 692 693 710 705 702 691 682 681 680 680 682 687 690
673 660 668 663 689 694 689 688 682 687 691 696 693 686 693 687 682 682 673 678 686 682 683 679 689 685 690 678 677 684 675 680 683 685 685 686 690 674 671 670 677 677 682 688 690
656 659 660 671 674 693 679 672 675 678 679 681 684 685 691 698 696 682 682 678 679 681 684 686 689 692 704 685 684 699 680 673 674 672 676 690 679 671 673 672 671 673 678 685 691